[[{"header":{"parameterUnit":"m.s-1","parameterCategory":1,"la1":30.2991,"la2":30.254,"lo1":-89.0895,"lo2":-89.0444,"dy":0.0017,"dx":0.0017,"nx":28,"ny":28,"refTime":"2025-05-01T03:00:00:Z","depth":0,"parameterNumber":2,"parameterNumberName":"U-component_of_WINDS"},"data":[0,0,0,0,0,0,0,0,0,0,0,0,0,0,0,0,0,0,0,0,0,0,0,0,0,0,0,0,0,0,0,0,0,0,0,0,0,0,0,0,0,0,0,0,0,0,0,0,0,0,0,0,0,0,0,0,0,0,-1.144,-1.1441,0,-1.1564,-1.1565,-1.1567,-1.1634,-1.1634,-1.1634,-1.1634,-1.1764,-1.1767,-1.177,0,0,0,0,0,0,0,0,0,0,0,0,0,-1.1265,-1.1268,-1.144,-1.1441,-1.1443,-1.1564,-1.1565,-1.1567,-1.1634,-1.1634,-1.1634,-1.1634,-1.1763,-1.1767,-1.1771,0,0,0,0,0,0,0,0,0,0,0,0,0,-1.136,-1.1269,-1.144,-1.1491,-1.1497,-1.1563,-1.1565,-1.1568,-1.1634,-1.1634,-1.1634,-1.1634,-1.1761,-1.1766,-1.1771,-1.1797,0,0,-1.1786,-1.1788,0,0,0,0,0,0,0,0,-1.1355,-1.1366,-1.1482,-1.1487,-1.1494,-1.1584,-1.1551,-1.1645,-1.1634,-1.1582,-1.1634,-1.1634,-1.1704,-1.1714,-1.1736,-1.1803,-1.1809,-1.1787,-1.179,-1.1792,-1.1793,0,0,0,0,0,0,0,-1.1348,-1.1361,-1.1489,-1.1483,-1.1491,-1.1509,-1.1522,-1.1569,-1.164,-1.1586,-1.1591,-1.1605,-1.1707,-1.1731,-1.174,-1.1811,-1.1787,-1.1791,-1.1794,-1.1796,-1.1907,-1.1907,0,0,0,0,0,0,-1.1333,-1.1355,-1.1485,-1.1493,-1.1423,-1.1512,-1.1527,-1.1555,-1.164,-1.1653,-1.1605,-1.1608,-1.1723,-1.1734,-1.1745,-1.1782,-1.1792,-1.1797,-1.1799,-1.1907,-1.1907,-1.1907,0,0,0,0,0,0,-1.1329,-1.1343,-1.148,-1.1426,-1.1444,-1.1514,-1.1545,-1.1557,-1.1581,-1.1654,-1.1667,-1.1616,-1.1723,-1.1738,-1.1784,-1.1787,-1.1799,-1.1803,-1.1907,-1.1907,-1.1907,-1.1856,0,0,0,0,0,0,-1.1323,-1.1342,-1.1351,-1.1425,-1.1447,-1.1516,-1.1545,-1.1559,-1.1589,-1.1594,-1.1668,-1.168,-1.1725,-1.1776,-1.1789,-1.1794,-1.1807,-1.1907,-1.1907,-1.1907,-1.1858,-1.1854,-1.1851,0,0,0,0,0,-1.1317,-1.1332,-1.1351,-1.1367,-1.146,-1.1516,-1.1529,-1.1578,-1.1589,-1.16,-1.1647,-1.1678,-1.1785,-1.178,-1.1795,-1.1802,-1.1907,-1.1907,-1.1907,-1.1859,-1.1855,-1.1851,0,0,0,0,0,0,-1.1258,-1.1343,-1.1365,-1.1405,-1.1453,-1.1527,-1.1543,-1.1572,-1.1619,-1.1622,-1.1683,-1.1699,-1.1739,-1.1776,-1.1769,-1.1833,-1.185,-1.1852,-1.1808,-1.1804,-1.1801,-1.1792,-1.1811,0,0,0,0,0,-1.1249,-1.1286,-1.1359,-1.1387,-1.141,-1.1472,-1.1498,-1.1532,-1.1585,-1.1605,-1.1656,-1.1706,-1.1751,-1.178,-1.1825,-1.1863,-1.1881,-1.1876,-1.1872,-1.1869,-1.1871,-1.1895,-1.1894,-1.1907,-1.1907,-1.1907,0,0,-1.1232,-1.1283,-1.1303,-1.1376,-1.1418,-1.1456,-1.1488,-1.1527,-1.1557,-1.1612,-1.1658,-1.1697,-1.1757,-1.18,-1.1821,-1.1831,-1.1871,-1.1869,-1.1866,-1.187,-1.1895,-1.1894,-1.1892,-1.1907,-1.1907,-1.1907,0,0,-1.1221,-1.1263,-1.1291,-1.1331,-1.1393,-1.1434,-1.1441,-1.1512,-1.1539,-1.1587,-1.1629,-1.1666,-1.1742,-1.1783,-1.1814,-1.182,-1.185,-1.1833,-1.1816,-1.1839,-1.1838,-1.1837,-1.184,-1.184,-1.1834,-1.1834,-1.1834,0,-1.1192,-1.125,-1.1302,-1.1339,-1.137,-1.1421,-1.1451,-1.1489,-1.1562,-1.1583,-1.1593,-1.1691,-1.1735,-1.1788,-1.179,-1.1813,-1.1824,-1.1825,-1.1833,-1.1833,-1.1834,-1.1837,-1.1838,-1.1832,-1.1832,-1.1832,-1.1833,0,-1.1213,-1.1252,-1.1268,-1.1337,-1.1371,-1.1403,-1.1462,-1.149,-1.1521,-1.1562,-1.161,-1.1665,-1.1723,-1.1738,-1.177,-1.1797,-1.1801,-1.1821,-1.184,-1.1829,-1.1833,-1.1835,-1.1828,-1.1829,-1.183,-1.1831,0,0,-1.1167,-1.1265,-1.127,-1.1302,-1.1374,-1.1406,-1.1442,-1.1498,-1.1522,-1.1571,-1.1603,-1.1667,-1.1686,-1.1722,-1.1759,-1.1778,-1.178,-1.1797,-1.1799,-1.1792,-1.1815,-1.1799,-1.18,-1.1801,-1.1801,-1.1802,-1.181,0,-1.1167,-1.1233,-1.1281,-1.1329,-1.1367,-1.1416,-1.1448,-1.1496,-1.1535,-1.1574,-1.1618,-1.1662,-1.1684,-1.1706,-1.1728,-1.1775,-1.1786,-1.1775,-1.1833,-1.1834,-1.1817,-1.1802,-1.1786,-1.179,-1.1812,-1.1812,-1.1812,0,-1.1175,-1.1222,-1.1273,-1.1342,-1.136,-1.1387,-1.1443,-1.1479,-1.1535,-1.1562,-1.1602,-1.164,-1.1681,-1.1695,-1.1754,-1.1746,-1.1773,-1.18,-1.1801,-1.1809,-1.1823,-1.181,-1.1793,-1.1794,-1.1815,-1.1815,-1.1815,0,-1.1138,-1.1214,-1.1255,-1.1281,-1.1362,-1.138,-1.1415,-1.1471,-1.1502,-1.1551,-1.1572,-1.1625,-1.1655,-1.1696,-1.1748,-1.1753,-1.1802,-1.182,-1.1827,-1.1825,-1.1835,-1.1834,-1.1823,-1.1851,-1.1851,-1.1851,-1.1851,0,-1.1132,-1.1162,-1.1239,-1.1264,-1.1299,-1.1355,-1.1389,-1.1428,-1.1478,-1.1513,-1.1559,-1.1591,-1.1657,-1.1697,-1.1738,-1.1781,-1.1794,-1.1818,-1.1829,-1.1814,-1.1811,-1.1833,-1.1834,-1.1851,-1.1851,-1.1851,-1.1851,0,-1.1097,-1.1149,-1.1197,-1.127,-1.1289,-1.1312,-1.1375,-1.1402,-1.1444,-1.1487,-1.15,-1.1566,-1.1616,-1.1672,-1.174,-1.1768,-1.1809,-1.1824,-1.1789,-1.1796,-1.18,-1.1799,-1.1803,-1.1807,-1.1831,-1.183,-1.183,0,-1.109,-1.1114,-1.1189,-1.1215,-1.1249,-1.129,-1.1322,-1.1378,-1.1409,-1.1476,-1.1495,-1.1548,-1.1594,-1.1671,-1.1726,-1.1779,-1.1796,-1.1794,-1.1805,-1.179,-1.1797,-1.1796,-1.1799,-1.1791,-1.1791,-1.179,-1.179,0,-1.1073,-1.1098,-1.1141,-1.1194,-1.123,-1.1275,-1.1321,-1.134,-1.1406,-1.1439,-1.149,-1.1525,-1.1595,-1.1648,-1.1708,-1.1745,-1.1779,-1.1786,-1.1791,-1.1776,-1.1756,-1.1768,-1.1782,-1.1786,-1.1786,-1.1786,-1.1787,-1.1787,-1.1053,-1.1077,-1.1134,-1.1181,-1.1221,-1.1264,-1.1293,-1.1338,-1.1381,-1.1442,-1.1473,-1.1524,-1.1581,-1.1665,-1.1701,-1.1743,-1.1754,-1.176,-1.1762,-1.1763,-1.1759,-1.1748,-1.1754,-1.1754,-1.1754,-1.1755,-1.1755,0,-1.1039,-1.1078,-1.1121,-1.1184,-1.1221,-1.1248,-1.1301,-1.1331,-1.1375,-1.1425,-1.1469,-1.1528,-1.158,-1.1638,-1.1694,-1.1716,-1.1733,-1.1729,-1.1728,-1.1737,-1.1746,-1.1737,-1.1714,-1.1714,-1.1714,-1.1714,-1.1714,-1.1714,-1.1036,-1.1079,-1.111,-1.1174,-1.1213,-1.1263,-1.1291,-1.1331,-1.1371,-1.1435,-1.1477,-1.1515,-1.1569,-1.1629,-1.1678,-1.1694,-1.1713,-1.1704,-1.1725,-1.1733,-1.1736,-1.1739,-1.1731,-1.1708,-1.1708,-1.1713,-1.1713,-1.1713]},{"header":{"parameterUnit":"m.s-1","parameterCategory":1,"la1":30.2991,"la2":30.254,"lo1":-89.0895,"lo2":-89.0444,"dy":0.0017,"dx":0.0017,"nx":28,"ny":28,"refTime":"2025-05-01T03:00:00:Z","depth":0,"parameterNumber":3,"parameterNumberName":"V-component_of_WINDS"},"data":[0,0,0,0,0,0,0,0,0,0,0,0,0,0,0,0,0,0,0,0,0,0,0,0,0,0,0,0,0,0,0,0,0,0,0,0,0,0,0,0,0,0,0,0,0,0,0,0,0,0,0,0,0,0,0,0,0,0,6.6425,6.6425,0,6.6504,6.6505,6.6506,6.643,6.6427,6.6424,6.6421,6.6497,6.6502,6.6507,0,0,0,0,0,0,0,0,0,0,0,0,0,6.6201,6.6206,6.6424,6.6426,6.6427,6.6504,6.6505,6.6506,6.643,6.6427,6.6423,6.642,6.6496,6.6501,6.6507,0,0,0,0,0,0,0,0,0,0,0,0,0,6.6291,6.6207,6.6424,6.6398,6.6397,6.6503,6.6505,6.6506,6.6431,6.6427,6.6422,6.6418,6.6494,6.6501,6.6508,6.6643,0,0,6.653,6.6533,0,0,0,0,0,0,0,0,6.6286,6.6299,6.6401,6.64,6.6399,6.6452,6.6454,6.6552,6.6432,6.6418,6.6421,6.6416,6.6486,6.6493,6.6518,6.6646,6.665,6.6531,6.6535,6.6538,6.654,0,0,0,0,0,0,0,6.628,6.6296,6.6456,6.6403,6.6401,6.638,6.6388,6.6472,6.6476,6.6419,6.6414,6.6424,6.6484,6.6511,6.6519,6.6651,6.653,6.6537,6.6541,6.6544,6.689,6.6895,0,0,0,0,0,0,6.6277,6.6291,6.6453,6.6458,6.633,6.6388,6.6397,6.644,6.6475,6.6476,6.6428,6.6421,6.6501,6.6511,6.6521,6.6679,6.6538,6.6545,6.6549,6.6885,6.6891,6.6896,0,0,0,0,0,0,6.6273,6.6293,6.645,6.6373,6.6392,6.6397,6.6446,6.6444,6.6471,6.6482,6.6482,6.6455,6.6498,6.6511,6.6613,6.6681,6.6548,6.6555,6.688,6.6887,6.6894,6.6998,0,0,0,0,0,0,6.6267,6.6292,6.6344,6.6375,6.6396,6.6542,6.645,6.6448,6.6484,6.6475,6.6507,6.6508,6.6495,6.6602,6.662,6.6688,6.656,6.6873,6.6883,6.6892,6.6988,6.7008,6.7024,0,0,0,0,0,6.6259,6.637,6.6348,6.6368,6.6463,6.6546,6.6558,6.6542,6.649,6.6542,6.6548,6.6507,6.6671,6.6613,6.6633,6.6704,6.6869,6.688,6.6891,6.698,6.7004,6.7024,0,0,0,0,0,0,6.6346,6.6374,6.6349,6.6473,6.6508,6.6533,6.6599,6.6568,6.6617,6.6607,6.6583,6.6591,6.6698,6.6711,6.6647,6.6835,6.6761,6.6776,6.6822,6.6845,6.6863,6.6856,6.6566,0,0,0,0,0,6.638,6.6448,6.6467,6.6575,6.6594,6.6594,6.6629,6.6614,6.6649,6.6662,6.6677,6.671,6.6769,6.6808,6.6863,6.699,6.6994,6.7049,6.7067,6.7081,6.7094,6.716,6.7183,6.6932,6.6932,6.6932,0,0,6.645,6.6473,6.6517,6.6593,6.6618,6.6686,6.6606,6.6682,6.6732,6.6673,6.677,6.6782,6.6817,6.6932,6.6983,6.6946,6.7165,6.7095,6.7107,6.7112,6.7173,6.7197,6.7218,6.694,6.6938,6.6937,0,0,6.6612,6.6638,6.673,6.6757,6.6796,6.6795,6.6817,6.6847,6.6853,6.695,6.6906,6.6964,6.7066,6.7092,6.7119,6.729,6.7253,6.7309,6.7402,6.7466,6.7486,6.7503,6.7562,6.7583,6.7322,6.7322,6.7322,0,6.6694,6.6797,6.678,6.6859,6.6892,6.6844,6.6934,6.6961,6.7016,6.7039,6.6997,6.7123,6.7144,6.7262,6.7304,6.7328,6.735,6.7304,6.7485,6.7502,6.7518,6.7573,6.7596,6.7328,6.7328,6.7327,6.7326,0,6.6894,6.6966,6.7035,6.709,6.7131,6.7216,6.7209,6.7252,6.7233,6.7236,6.7333,6.7356,6.7414,6.7441,6.7423,6.7557,6.7532,6.7489,6.7414,6.7549,6.76,6.7621,6.7337,6.7335,6.7333,6.7332,0,0,6.7113,6.7157,6.7183,6.7206,6.7246,6.73,6.7381,6.7438,6.7475,6.7514,6.7579,6.7667,6.7626,6.7656,6.764,6.7697,6.7828,6.7646,6.7646,6.7677,6.7973,6.8005,6.803,6.7804,6.7808,6.7811,6.7969,0,6.7275,6.7418,6.7404,6.7538,6.7603,6.7557,6.7627,6.7658,6.7662,6.7715,6.7719,6.778,6.7723,6.7741,6.7795,6.7801,6.7887,6.7789,6.7862,6.7865,6.7853,6.8057,6.8091,6.8239,6.799,6.7993,6.7996,0,6.7483,6.753,6.7671,6.7699,6.7725,6.7789,6.7839,6.7892,6.7925,6.7924,6.7958,6.7932,6.801,6.7935,6.8042,6.7976,6.8005,6.8012,6.8017,6.8022,6.7937,6.8065,6.8286,6.8308,6.8028,6.8025,6.8023,0,6.7625,6.7724,6.7821,6.7843,6.7878,6.7923,6.794,6.7968,6.8003,6.8047,6.8068,6.812,6.8148,6.8188,6.8175,6.8122,6.8284,6.8208,6.8283,6.8283,6.8317,6.8315,6.8544,6.834,6.834,6.8339,6.8339,0,6.7806,6.7894,6.7885,6.7945,6.804,6.8023,6.8117,6.8128,6.8153,6.8212,6.8175,6.8231,6.8212,6.8266,6.8257,6.8345,6.8358,6.8357,6.8353,6.836,6.836,6.8377,6.8366,6.8345,6.8344,6.8343,6.8342,0,6.7981,6.7979,6.8081,6.8107,6.8115,6.8184,6.8204,6.8259,6.826,6.8334,6.8351,6.8352,6.8413,6.8405,6.8473,6.8467,6.8576,6.8561,6.8565,6.8561,6.8635,6.8628,6.8882,6.8913,6.8691,6.8693,6.8695,0,6.8096,6.8162,6.8195,6.8232,6.8252,6.8313,6.8348,6.8332,6.837,6.8412,6.846,6.8519,6.8564,6.8663,6.8669,6.872,6.8704,6.879,6.8712,6.8715,6.8703,6.8698,6.8704,6.8805,6.8807,6.8809,6.8811,0,6.8299,6.8294,6.8348,6.8401,6.8444,6.8484,6.8521,6.8553,6.854,6.8584,6.8647,6.8683,6.8752,6.8809,6.8857,6.8871,6.8839,6.8836,6.8855,6.8862,6.8861,6.886,6.8605,6.883,6.8828,6.8827,6.8826,6.8825,6.8445,6.8501,6.8533,6.8592,6.8618,6.8653,6.8705,6.8713,6.8765,6.8821,6.8809,6.8879,6.8907,6.8968,6.8988,6.9041,6.9009,6.9038,6.9045,6.9052,6.9059,6.8854,6.905,6.9049,6.9048,6.9048,6.9048,0,6.8644,6.8662,6.8718,6.877,6.8816,6.8784,6.8822,6.8862,6.8925,6.8955,6.9,6.9071,6.9126,6.9136,6.9188,6.9228,6.9214,6.9242,6.9237,6.9241,6.9086,6.9063,6.9252,6.9252,6.9252,6.9252,6.9252,6.9252,6.8753,6.8846,6.8845,6.8948,6.8965,6.9034,6.9058,6.9089,6.9113,6.9194,6.924,6.9246,6.9268,6.932,6.9368,6.9369,6.9389,6.9422,6.9418,6.9272,6.9252,6.9232,6.9211,6.9427,6.9428,6.9568,6.9569,6.957]}]]